Location: Austin
(30.3000°N, 97.7500°W)
Time: 06:19:22
(UTC-06:00)

Cosmos 2297 Rocket - Pass Details

Date: 05 February 2026
Orbit: 838 x 843 km, 71.0° (Epoch: 15 February)

Event Time Altitude Azimuth Distance (km) Brightness Sun altitude
Rises 05:54:54 0° 349° (N) 3,400 5.2 -18.5°
Reaches altitude 10° 05:57:32 10° 358° (N) 2,461 4.5 -18.0°
Maximum altitude 06:02:46 38° 66° (ENE) 1,259 3.6 -16.8°
Drops below altitude 10° 06:07:58 10° 133° (SE) 2,447 5.5 -15.7°
Sets 06:10:33 0° 141° (SE) 3,377 6.1 -15.2°
